TimeMDT,TemperatureF,Dew PointF,Humidity,Sea Level PressureIn,VisibilityMPH,Wind Direction,Wind SpeedMPH,Gust SpeedMPH,PrecipitationIn,Events,Conditions,WindDirDegrees,DateUTC
12:53 AM,36.0,27.0,70,30.08,10.0,WSW,11.5,-,N/A,,Clear,240,2012-10-08 06:53:00
1:53 AM,37.9,30.0,73,30.06,10.0,WSW,13.8,-,N/A,,Clear,240,2012-10-08 07:53:00
2:53 AM,39.0,30.0,70,30.04,10.0,WSW,13.8,-,N/A,,Clear,240,2012-10-08 08:53:00
3:53 AM,37.0,28.9,73,30.02,10.0,WSW,11.5,-,N/A,,Clear,250,2012-10-08 09:53:00
4:53 AM,37.9,28.9,70,29.99,10.0,WSW,12.7,-,N/A,,Clear,240,2012-10-08 10:53:00
5:53 AM,37.9,28.0,68,29.99,10.0,WSW,12.7,-,N/A,,Clear,250,2012-10-08 11:53:00
6:53 AM,37.9,27.0,65,30.00,10.0,WSW,12.7,-,N/A,,Clear,240,2012-10-08 12:53:00
7:53 AM,42.1,28.0,58,30.01,10.0,WSW,13.8,-,N/A,,Clear,250,2012-10-08 13:53:00
8:53 AM,52.0,28.9,41,30.01,10.0,WSW,15.0,-,N/A,,Clear,250,2012-10-08 14:53:00
9:53 AM,60.1,25.0,26,29.99,10.0,WSW,16.1,-,N/A,,Clear,240,2012-10-08 15:53:00
10:53 AM,66.0,21.9,19,29.95,10.0,WSW,9.2,-,N/A,,Clear,250,2012-10-08 16:53:00
11:53 AM,68.0,10.9,11,29.92,10.0,Calm,Calm,-,N/A,,Clear,0,2012-10-08 17:53:00
12:53 PM,71.1,12.9,11,29.87,10.0,WSW,5.8,-,N/A,,Clear,240,2012-10-08 18:53:00
1:53 PM,72.0,10.0,9,29.83,10.0,Variable,5.8,-,N/A,,Clear,0,2012-10-08 19:53:00
2:53 PM,73.0,12.9,10,29.81,10.0,SSW,11.5,16.1,N/A,,Clear,200,2012-10-08 20:53:00
3:53 PM,72.0,14.0,11,29.80,10.0,SSW,9.2,-,N/A,,Clear,210,2012-10-08 21:53:00
4:53 PM,71.1,12.9,11,29.80,10.0,SW,8.1,-,N/A,,Clear,230,2012-10-08 22:53:00
5:53 PM,64.9,21.0,19,29.80,10.0,South,5.8,-,N/A,,Clear,190,2012-10-08 23:53:00
6:53 PM,57.0,24.1,28,29.82,10.0,South,6.9,-,N/A,,Clear,190,2012-10-09 00:53:00
7:53 PM,59.0,21.2,23,29.85,10.0,South,10.4,-,N/A,,Clear,190,2012-10-09 01:53:00
8:53 PM,55.0,24.1,30,29.80,10.0,South,9.2,-,N/A,,Clear,190,2012-10-09 02:53:00
9:53 PM,52.0,28.9,41,29.80,10.0,SSW,13.8,-,N/A,,Clear,200,2012-10-09 03:53:00
10:53 PM,53.6,30.2,41,29.85,10.0,South,13.8,-,N/A,,Clear,190,2012-10-09 04:53:00
11:53 PM,48.9,32.0,52,29.77,10.0,South,8.1,-,N/A,,Clear,190,2012-10-09 05:53:00